Weather History for Pope Field Airport, NC

Change the Weather History Date:

Monday, November 26, 2012

  Actual Average Record
Temperature  
Mean Temperature 46 °F -  
Max Temperature 65 °F 64 °F 78 °F (1986)
Min Temperature 27 °F 41 °F 24 °F (2005)
Degree Days  
Heating Degree Days 19    
Moisture  
Dew Point 28 °F    
Average Humidity 58    
Maximum Humidity 90    
Minimum Humidity 20    
Precipitation  
Precipitation 0.00 in - - ()
Sea Level Pressure  
Sea Level Pressure 30.17 in    
Wind  
Wind Speed 2 mph (SSW)    
Max Wind Speed 8 mph    
Max Gust Speed -    
Visibility 10 miles    
Events      
Averages and records for this station are not official NWS values.
T = Trace of Precipitation, MM = Missing Value Source: NWS Daily Summary

Daily Weather History Graph

Daily Weather History Graph

Search for Another Location

Airport:

Trip Planner

Search our weather history database for the weather conditions in past years. The results will help you decide how hot, cold, wet, or windy it might be!

Date:

Astronomy

Nov. 26, 2012 Rise Set
Actual Time 7:01 AM EST 5:04 PM EST
Civil Twilight 6:34 AM EST 5:32 PM EST
Nautical Twilight 6:03 AM EST 6:03 PM EST
Astronomical Twilight 5:32 AM EST 6:34 PM EST
Moon 3:54 PM EST (11/26) 5:12 AM EST (11/26)
Length of Visible Light 10h 58m
Length of Day
10h 02m
Waxing Gibbous, 97% of the Moon is Illuminated
Nov 26
Waxing Gibbous
Nov 28
Full
Dec 6
Last Quarter
Dec 13
New
Dec 20
First Quarter

Hourly Weather History & Observations

Time (EST) Temp. Windchill Dew Point Humidity Pressure Visibility Wind Dir Wind Speed Gust Speed Precip Events Conditions
12:55 AM 30.7 °F - 25.5 °F 81% 30.12 in 10.0 mi Calm Calm - N/A   Clear
1:55 AM 36.5 °F 30.3 °F 27.5 °F 70% 30.12 in 10.0 mi WSW 8.1 mph - N/A   Clear
2:55 AM 37.0 °F 33.3 °F 27.0 °F 67% 30.12 in 10.0 mi WSW 4.6 mph - N/A   Clear
3:55 AM 35.4 °F 31.5 °F 27.1 °F 72% 30.12 in 10.0 mi West 4.6 mph - N/A   Clear
4:55 AM 30.7 °F - 26.2 °F 83% 30.13 in 10.0 mi Calm Calm - N/A   Clear
5:55 AM 27.7 °F - 25.0 °F 90% 30.15 in 10.0 mi Calm Calm - N/A   Clear
6:55 AM 28.9 °F - 25.3 °F 86% 30.17 in 10.0 mi Calm Calm - N/A   Clear
7:55 AM 30.4 °F - 27.1 °F 88% 30.20 in 10.0 mi Calm Calm - N/A   Clear
8:55 AM 41.7 °F - 29.3 °F 61% 30.22 in 10.0 mi Calm Calm - N/A   Clear
9:55 AM 50.2 °F - 29.7 °F 45% 30.23 in 10.0 mi Calm Calm - N/A   Clear
10:55 AM 55.4 °F - 25.3 °F 31% 30.23 in 10.0 mi Calm Calm - N/A   Clear
11:55 AM 59.7 °F - 25.5 °F 27% 30.21 in 10.0 mi SE 3.5 mph - N/A   Clear
12:55 PM 62.8 °F - 24.8 °F 24% 30.19 in 9.0 mi Calm Calm - N/A   Clear
1:55 PM 65.5 °F - 25.7 °F 22% 30.17 in 10.0 mi Variable 3.5 mph - N/A   Clear
2:55 PM 65.1 °F - 23.4 °F 20% 30.15 in 10.0 mi SSW 5.8 mph - N/A   Clear
3:55 PM 63.7 °F - 25.9 °F 24% 30.15 in 10.0 mi SSW 5.8 mph - N/A   Clear
4:55 PM 61.0 °F - 26.4 °F 27% 30.17 in 10.0 mi Calm Calm - N/A   Clear
5:55 PM 55.6 °F - 28.6 °F 36% 30.17 in 10.0 mi South 3.5 mph - N/A   Clear
6:55 PM 45.9 °F 44.6 °F 32.7 °F 60% 30.18 in 10.0 mi ENE 3.5 mph - N/A   Clear
7:55 PM 41.7 °F - 32.0 °F 68% 30.19 in 10.0 mi Calm Calm - N/A   Clear
8:55 PM 40.6 °F - 32.0 °F 71% 30.19 in 10.0 mi Calm Calm - N/A   Clear
9:55 PM 38.7 °F - 31.5 °F 75% 30.19 in 10.0 mi Calm Calm - N/A   Clear
10:55 PM 36.9 °F - 30.9 °F 79% 30.19 in 10.0 mi Calm Calm - N/A   Clear
11:55 PM 35.6 °F - 30.6 °F 82% 30.19 in 10.0 mi Calm Calm - N/A   Clear